EUTELSAT 36B

Last updated on Wed Sep 17 2025 00:02:47 GMT+0000 (Coordinated Universal Time)

1 36101U 09065A 25259.59369873 .00000000 00000+0 00000+0 0 9992 2 36101 0.0254 25.3509 0005789 158.3110 76.3326 1.00270390 57962
UTC large
Height (km)
Speed (km/s)
/
Latitude / Longitude
Inclination (degrees)
Orbital Period (minutes)
Azimuth
Elevation
Range (km)
Doppler Factor

Next 0 passes for location: London (51.5072 / 0.1276)

Sorry there are no passes over London.